{"data":{"norad_id":52465,"epoch":"2026-05-25T04:09:25.144416Z","epoch_age_seconds":60003,"freshness":"FRESH","line1":"1 52465U 22049Q   26145.17320769  .00000196  00000+0  30418-4 0  9997","line2":"2 52465  53.2151  65.7709 0001283  88.4957 271.6182 15.08839741223932","mean_motion":15.08839741,"eccentricity":0.0001283,"inclination_deg":53.2151,"raan_deg":65.7709,"arg_perigee_deg":88.4957,"mean_anomaly_deg":271.6182,"bstar":3.0418e-5,"rev_number":22393,"period_min":95.437571060106,"perigee_km":538.85661646813,"apogee_km":540.63174477908,"semimajor_km":6917.8811806236,"source":"CELESTRAK","updated_at":"2026-05-25T13:38:17.150968Z"}}